Location: Caltech
(34.1382°N, 118.1253°W)
Time: 00:52:39
(UTC-07:00)

Cosmos 1758 Rocket - Visible Passes

Search period start: 31 August 2016 00:00
Search period end: 10 September 2016 00:00
Orbit: 602 x 637 km, 82.5° (Epoch: 30 August)

Date Brightness Start Highest point End Pass type
(mag) Time Alt. Az. Time Alt. Az. Time Alt. Az.
31 Aug 3.8 21:04:26 10° N 21:08:07 49° NE 21:08:07 49° NE visible
01 Sep 3.7 21:21:50 10° N 21:25:52 69° WNW 21:25:52 69° WNW visible
02 Sep 5.2 20:03:07 10° NE 20:05:34 15° ENE 20:06:29 14° E visible
02 Sep 4.9 21:39:37 10° NNW 21:43:32 34° W 21:43:41 34° W visible
03 Sep 4.4 20:19:29 10° NNE 20:23:15 28° ENE 20:24:22 25° ESE visible
03 Sep 6.0 21:57:59 10° NW 22:00:50 18° W 22:01:33 17° W visible
04 Sep 3.5 20:36:33 10° N 20:40:48 58° E 20:42:18 36° SE visible
05 Sep 3.8 20:54:00 10° NNW 20:58:17 67° W 21:00:20 29° SSW visible
06 Sep 5.1 19:35:04 10° NE 19:37:44 16° ENE 19:40:24 10° ESE visible
06 Sep 5.2 21:11:50 10° NNW 21:15:40 32° W 21:18:28 16° SW visible
07 Sep 4.3 19:51:33 10° NNE 19:55:23 31° ENE 19:59:12 10° SE visible
07 Sep 6.3 21:30:17 10° NW 21:32:57 16° W 21:35:37 10° SW visible
08 Sep 3.5 20:08:40 10° N 20:12:57 63° E 20:17:12 10° SSE visible
09 Sep 4.0 20:26:09 10° NNW 20:30:24 61° W 20:34:39 10° S visible
